| time (UTC) | temp F | wind direction | speed knots | gust knots | rain 1hr in | rain 24hr in | rain mn in | humidity % | barometer mb |
| 20260904171809 | 89 | 131 | 3.5 | 3.5 | 0.00 | 0.00 | 0.00 | ||
| 20260904171305 | 89 | 128 | 0.9 | 1.7 | 0.00 | 0.00 | 0.00 | ||
| 20260904170806 | 88 | 129 | 2.6 | 1.7 | 0.00 | 0.00 | 0.00 | ||
| 20260904170304 | 89 | 159 | 5.2 | 4.3 | 0.00 | 0.00 | 0.00 | ||
| 20260904165805 | 89 | 136 | 4.3 | 2.6 | 0.00 | 0.00 | 0.00 | ||
| 20260904165305 | 89 | 139 | 3.5 | 3.5 | 0.00 | 0.00 | 0.00 | ||
| 20260904164805 | 89 | 110 | 5.2 | 2.6 | 0.00 | 0.00 | 0.00 | ||
| 20260904164302 | 90 | 117 | 6.1 | 5.2 | 0.00 | 0.00 | 0.00 | ||
| 20260904163300 | 90 | 120 | 1.7 | 1.7 | 0.00 | 0.00 | 0.00 | ||
| 20260904162257 | 90 | 217 | 0.0 | 0.9 | 0.00 | 0.00 | 0.00 | ||
| 20260904161756 | 90 | 184 | 0.9 | 0.0 | 0.00 | 0.00 | 0.00 | ||
| 20260904161255 | 91 | 190 | 0.0 | 0.9 | 0.00 | 0.00 | 0.00 | ||
| 20260904160754 | 92 | 142 | 0.0 | 0.0 | 0.00 | 0.00 | 0.00 | ||
| 20260904160252 | 91 | 215 | 0.9 | 1.7 | 0.00 | 0.00 | 0.00 | ||
| 20260904155255 | 85 | 148 | 3.5 | 3.5 | 0.00 | 0.00 | 0.00 | ||
| 20260904155251 | 91 | 356 | 1.7 | 1.7 | 0.00 | 0.00 | 0.00 | ||
| 20260904154752 | 91 | 307 | 1.7 | 4.3 | 0.00 | 0.00 | 0.00 | ||
| 20260904154250 | 92 | 263 | 0.9 | 1.7 | 0.00 | 0.00 | 0.00 | ||
| 20260904153250 | 91 | 290 | 0.0 | 1.7 | 0.00 | 0.00 | 0.00 | ||
| 20260904152751 | 91 | 293 | 0.0 | 0.0 | 0.00 | 0.00 | 0.00 | ||
| 20260904151750 | 92 | 297 | 0.9 | 1.7 | 0.00 | 0.00 | 0.00 | ||
| 20260904151248 | 91 | 293 | 1.7 | 0.0 | 0.00 | 0.00 | 0.00 | ||
| 20260904150749 | 91 | 323 | 1.7 | 0.9 | 0.00 | 0.00 | 0.00 | ||
| 20260904150247 | 91 | 267 | 0.0 | 0.9 | 0.00 | 0.00 | 0.00 | ||
| 20260904145748 | 90 | 338 | 1.7 | 2.6 | 0.00 | 0.00 | 0.00 | ||
| 20260904145247 | 89 | 307 | 0.9 | 0.0 | 0.00 | 0.00 | 0.00 | ||
| 20260904144748 | 88 | 307 | 0.0 | 1.7 | 0.00 | 0.00 | 0.00 | ||
| 20260904143747 | 87 | 134 | 4.3 | 1.7 | 0.00 | 0.00 | 0.00 | ||
| 20260904143244 | 86 | 125 | 1.7 | 5.2 | 0.00 | 0.00 | 0.00 | ||
| 20260904142743 | 86 | 131 | 4.3 | 4.3 | 0.00 | 0.00 | 0.00 | ||
| 20260904142242 | 86 | 134 | 2.6 | 2.6 | 0.00 | 0.00 | 0.00 | ||
| 20260904141241 | 86 | 146 | 2.6 | 2.6 | 0.00 | 0.00 | 0.00 | ||
| 20260904140742 | 85 | 148 | 3.5 | 3.5 | 0.00 | 0.00 | 0.00 | ||
| 20260904140240 | 84 | 110 | 4.3 | 4.3 | 0.00 | 0.00 | 0.00 | ||
| 20260904135741 | 84 | 297 | 1.7 | 0.9 | 0.00 | 0.00 | 0.00 | ||
| 20260904135440 | 84 | 131 | 0.9 | 3.5 | 0.00 | 0.00 | 0.00 | ||
| 20260904135238 | 84 | 44 | 0.9 | 0.0 | 0.00 | 0.00 | 0.00 | ||
| 20260904134739 | 84 | 131 | 0.9 | 3.5 | 0.00 | 0.00 | 0.00 | ||
| 20260904134237 | 83 | 231 | 1.7 | 0.9 | 0.00 | 0.00 | 0.00 | ||
| 20260904133738 | 83 | 113 | 0.9 | 1.7 | 0.00 | 0.00 | 0.00 | ||
| 20260904133235 | 83 | 141 | 1.7 | 1.7 | 0.00 | 0.00 | 0.00 | ||
| 20260904132737 | 83 | 267 | 0.0 | 0.0 | 0.00 | 0.00 | 0.00 | ||
| 20260904132235 | 82 | 267 | 0.0 | 0.0 | 0.00 | 0.00 | 0.00 | ||
| 20260904130735 | 82 | 103 | 0.0 | 0.0 | 0.00 | 0.00 | 0.00 | ||
| 20260904130232 | 81 | 103 | 0.0 | 0.0 | 0.00 | 0.00 | 0.00 | ||
| 20260904125232 | 81 | 103 | 0.0 | 0.0 | 0.00 | 0.00 | 0.00 | ||
| 20260904124231 | 81 | 103 | 0.0 | 0.0 | 0.00 | 0.00 | 0.00 | ||
| 20260904123227 | 80 | 103 | 0.0 | 0.0 | 0.00 | 0.00 | 0.00 | ||
| 20260904122228 | 80 | 103 | 0.0 | 0.0 | 0.00 | 0.00 | 0.00 | ||
| 20260904121727 | 80 | 103 | 0.0 | 0.0 | 0.00 | 0.00 | 0.00 | ||
| 20260904121223 | 80 | 103 | 0.0 | 0.0 | 0.00 | 0.00 | 0.00 | ||
| 20260904120724 | 78 | 103 | 0.0 | 0.0 | 0.00 | 0.00 | 0.00 | ||
| 20260904114722 | 78 | 103 | 0.0 | 0.0 | 0.00 | 0.00 | 0.00 | ||
| 20260904113720 | 77 | 103 | 0.0 | 0.0 | 0.00 | 0.00 | 0.00 | ||
| 20260904112717 | 77 | 103 | 0.0 | 0.0 | 0.00 | 0.00 | 0.00 | ||
| 20260904112216 | 77 | 103 | 0.0 | 0.0 | 0.00 | 0.00 | 0.00 | ||
| 20260904111715 | 77 | 103 | 0.0 | 0.0 | 0.00 | 0.00 | 0.00 | ||
| 20260904111214 | 76 | 103 | 0.0 | 0.0 | 0.00 | 0.00 | 0.00 | ||
| 20260904110212 | 76 | 103 | 0.0 | 0.0 | 0.00 | 0.00 | 0.00 | ||
| 20260904104710 | 76 | 103 | 0.0 | 0.0 | 0.00 | 0.00 | 0.00 | ||
| 20260904104206 | 76 | 103 | 0.0 | 0.0 | 0.00 | 0.00 | 0.00 | ||
| 20260904102204 | 76 | 103 | 0.0 | 0.0 | 0.00 | 0.00 | 0.00 | ||
| 20260904101737 | 76 | 103 | 0.0 | 0.0 | 0.00 | 0.00 | 0.00 | ||
| 20260904101705 | 76 | 103 | 0.0 | 0.0 | 0.00 | 0.00 | 0.00 | ||
| 20260904100704 | 76 | 103 | 0.0 | 0.0 | 0.00 | 0.00 | 0.00 | ||
| 20260904100201 | 76 | 103 | 0.0 | 0.0 | 0.00 | 0.00 | 0.00 | ||
| 20260904095159 | 76 | 103 | 0.0 | 0.0 | 0.00 | 0.00 | 0.00 | ||
| 20260904094700 | 76 | 103 | 0.0 | 0.0 | 0.00 | 0.00 | 0.00 | ||
| 20260904094158 | 77 | 103 | 0.0 | 0.0 | 0.00 | 0.00 | 0.00 | ||
| 20260904093659 | 76 | 103 | 0.0 | 0.0 | 0.00 | 0.00 | 0.00 | ||
| 20260904092658 | 76 | 103 | 0.0 | 0.0 | 0.00 | 0.00 | 0.00 | ||
| 20260904091657 | 77 | 103 | 0.0 | 0.0 | 0.00 | 0.00 | 0.00 | ||
| 20260904090153 | 76 | 103 | 0.0 | 0.0 | 0.00 | 0.00 | 0.00 | ||
| 20260904085653 | 76 | 103 | 0.0 | 0.0 | 0.00 | 0.00 | 0.00 | ||
| 20260904085151 | 76 | 103 | 0.0 | 0.0 | 0.00 | 0.00 | 0.00 | ||
| 20260904084149 | 77 | 103 | 0.0 | 0.0 | 0.00 | 0.00 | 0.00 | ||
| 20260904082650 | 76 | 103 | 0.0 | 0.0 | 0.00 | 0.00 | 0.00 | ||
| 20260904082147 | 77 | 103 | 0.0 | 0.0 | 0.00 | 0.00 | 0.00 | ||
| 20260904081648 | 77 | 103 | 0.0 | 0.0 | 0.00 | 0.00 | 0.00 | ||
| 20260904081238 | 77 | 103 | 0.0 | 0.0 | 0.00 | 0.00 | 0.00 | ||
| 20260904081144 | 77 | 103 | 0.0 | 0.0 | 0.00 | 0.00 | 0.00 | ||
| 20260904080645 | 77 | 103 | 0.0 | 0.0 | 0.00 | 0.00 | 0.00 | ||
| 20260904075139 | 77 | 103 | 0.0 | 0.0 | 0.00 | 0.00 | 0.00 | ||
| 20260904074640 | 77 | 103 | 0.0 | 0.0 | 0.00 | 0.00 | 0.00 | ||
| 20260904074137 | 77 | 103 | 0.0 | 0.0 | 0.00 | 0.00 | 0.00 | ||
| 20260904073638 | 77 | 103 | 0.0 | 0.0 | 0.00 | 0.00 | 0.00 | ||
| 20260904073134 | 77 | 103 | 0.0 | 0.0 | 0.00 | 0.00 | 0.00 | ||
| 20260904072133 | 77 | 103 | 0.0 | 0.0 | 0.00 | 0.00 | 0.00 | ||
| 20260904071634 | 77 | 103 | 0.0 | 0.0 | 0.00 | 0.00 | 0.00 | ||
| 20260904071132 | 77 | 103 | 0.0 | 0.0 | 0.00 | 0.00 | 0.00 | ||
| 20260904070633 | 77 | 103 | 0.0 | 0.0 | 0.00 | 0.00 | 0.00 | ||
| 20260904070131 | 77 | 103 | 0.0 | 0.0 | 0.00 | 0.00 | 0.00 | ||
| 20260904065632 | 77 | 103 | 0.0 | 0.0 | 0.00 | 0.00 | 0.00 | ||
| 20260904065128 | 76 | 103 | 0.0 | 0.0 | 0.00 | 0.00 | 0.00 | ||
| 20260904064629 | 77 | 103 | 0.0 | 0.0 | 0.00 | 0.00 | 0.00 | ||
| 20260904064126 | 77 | 103 | 0.0 | 0.0 | 0.00 | 0.00 | 0.00 | ||
| 20260904063627 | 77 | 103 | 0.0 | 0.0 | 0.00 | 0.00 | 0.00 | ||
| 20260904062625 | 78 | 103 | 0.0 | 0.0 | 0.00 | 0.00 | 0.00 | ||
| 20260904061123 | 78 | 103 | 0.0 | 0.0 | 0.00 | 0.00 | 0.00 | ||
| 20260904060623 | 78 | 103 | 0.0 | 0.0 | 0.00 | 0.00 | 0.00 | ||
| 20260904055621 | 78 | 103 | 0.0 | 0.0 | 0.00 | 0.00 | 0.00 | ||
| 20260904055119 | 78 | 103 | 0.0 | 0.0 | 0.00 | 0.00 | 0.00 | ||
| 20260904054620 | 78 | 103 | 0.0 | 0.0 | 0.00 | 0.00 | 0.00 | ||
| 20260904053618 | 78 | 103 | 0.0 | 0.0 | 0.00 | 0.00 | 0.00 | ||
| 20260904053114 | 78 | 103 | 0.0 | 0.0 | 0.00 | 0.00 | 0.00 | ||
| 20260904052615 | 78 | 103 | 0.0 | 0.0 | 0.00 | 0.00 | 0.00 | ||
| 20260904052113 | 78 | 103 | 0.0 | 0.0 | 0.00 | 0.00 | 0.00 | ||
| 20260904051613 | 78 | 103 | 0.0 | 0.0 | 0.00 | 0.00 | 0.00 | ||
| 20260904051110 | 79 | 103 | 0.0 | 0.0 | 0.00 | 0.00 | 0.00 | ||
| 20260904050611 | 77 | 103 | 0.0 | 0.0 | 0.00 | 0.00 | 0.00 | ||
| 20260904050109 | 78 | 103 | 0.0 | 0.0 | 0.00 | 0.00 | 0.00 | ||
| 20260904045610 | 78 | 103 | 0.0 | 0.0 | 0.00 | 0.00 | 0.00 | ||
| 20260904045106 | 78 | 103 | 0.0 | 0.0 | 0.00 | 0.00 | 0.00 | ||
| 20260904044607 | 78 | 103 | 0.0 | 0.0 | 0.00 | 0.00 | 0.00 | ||
| 20260904044103 | 78 | 103 | 0.0 | 0.0 | 0.00 | 0.00 | 0.00 | ||
| 20260904043604 | 78 | 103 | 0.0 | 0.0 | 0.00 | 0.00 | 0.00 | ||
| 20260904043102 | 78 | 103 | 0.0 | 0.0 | 0.00 | 0.00 | 0.00 | ||
| 20260904042602 | 79 | 103 | 0.0 | 0.0 | 0.00 | 0.00 | 0.00 | ||
| 20260904042101 | 79 | 103 | 0.0 | 0.0 | 0.00 | 0.00 | 0.00 | ||
| 20260904041601 | 78 | 103 | 0.0 | 0.0 | 0.00 | 0.00 | 0.00 | ||
| 20260904041059 | 79 | 103 | 0.0 | 0.0 | 0.00 | 0.00 | 0.00 | ||
| 20260904040600 | 79 | 103 | 0.0 | 0.0 | 0.00 | 0.00 | 0.00 | ||
| 20260904040058 | 80 | 103 | 0.0 | 0.0 | 0.00 | 0.00 | 0.00 | ||
| 20260904035559 | 79 | 103 | 0.0 | 0.0 | 0.00 | 0.00 | 0.00 | ||
| 20260904035057 | 79 | 103 | 0.0 | 0.0 | 0.00 | 0.00 | 0.00 | ||
| 20260904034557 | 79 | 103 | 0.0 | 0.0 | 0.00 | 0.00 | 0.00 | ||
| 20260904033556 | 79 | 103 | 0.0 | 0.0 | 0.00 | 0.00 | 0.00 | ||
| 20260904032051 | 79 | 103 | 0.0 | 0.0 | 0.00 | 0.00 | 0.00 | ||
| 20260904031552 | 79 | 103 | 0.0 | 0.0 | 0.00 | 0.00 | 0.00 | ||
| 20260904031049 | 79 | 103 | 0.0 | 0.0 | 0.00 | 0.00 | 0.00 | ||
| 20260904030550 | 79 | 103 | 0.0 | 0.0 | 0.00 | 0.00 | 0.00 | ||
| 20260904030048 | 80 | 103 | 0.0 | 0.0 | 0.00 | 0.00 | 0.00 | ||
| 20260904025045 | 79 | 103 | 0.0 | 0.0 | 0.00 | 0.00 | 0.00 | ||
| 20260904024546 | 80 | 103 | 0.0 | 0.0 | 0.00 | 0.00 | 0.00 | ||
| 20260904024044 | 80 | 103 | 0.0 | 0.0 | 0.00 | 0.00 | 0.00 | ||
| 20260904023545 | 79 | 103 | 0.0 | 0.0 | 0.00 | 0.00 | 0.00 | ||
| 20260904023042 | 79 | 103 | 0.0 | 0.0 | 0.00 | 0.00 | 0.00 | ||
| 20260904022543 | 80 | 103 | 0.0 | 0.0 | 0.00 | 0.00 | 0.00 | ||
| 20260904022041 | 80 | 103 | 0.0 | 0.0 | 0.00 | 0.00 | 0.00 | ||
| 20260904021539 | 80 | 103 | 0.0 | 0.0 | 0.00 | 0.00 | 0.00 | ||
| 20260904021038 | 80 | 103 | 0.0 | 0.0 | 0.00 | 0.00 | 0.00 | ||
| 20260904020539 | 80 | 103 | 0.0 | 0.0 | 0.00 | 0.00 | 0.00 | ||
| 20260904020035 | 80 | 103 | 0.0 | 0.0 | 0.00 | 0.00 | 0.00 | ||
| 20260904015535 | 80 | 103 | 0.0 | 0.0 | 0.00 | 0.00 | 0.00 | ||
| 20260904015034 | 80 | 103 | 0.0 | 0.0 | 0.00 | 0.00 | 0.00 | ||
| 20260904014534 | 80 | 103 | 0.0 | 0.0 | 0.00 | 0.00 | 0.00 | ||
| 20260904013529 | 80 | 103 | 0.0 | 0.0 | 0.00 | 0.00 | 0.00 | ||
| 20260904013027 | 81 | 103 | 0.0 | 0.0 | 0.00 | 0.00 | 0.00 | ||
| 20260904012024 | 80 | 103 | 0.0 | 0.0 | 0.00 | 0.00 | 0.00 | ||
| 20260904011021 | 80 | 103 | 0.0 | 0.0 | 0.00 | 0.00 | 0.00 | ||
| 20260904010522 | 81 | 103 | 0.0 | 0.0 | 0.00 | 0.00 | 0.00 | ||
| 20260904010019 | 81 | 103 | 0.0 | 0.0 | 0.00 | 0.00 | 0.00 | ||
| 20260904005519 | 81 | 103 | 0.0 | 0.0 | 0.00 | 0.00 | 0.00 | ||
| 20260904005016 | 80 | 103 | 0.0 | 0.0 | 0.00 | 0.00 | 0.00 | ||
| 20260904004517 | 81 | 103 | 0.0 | 0.0 | 0.00 | 0.00 | 0.00 | ||
| 20260904004015 | 82 | 103 | 0.0 | 0.0 | 0.00 | 0.00 | 0.00 | ||
| 20260904003516 | 82 | 103 | 0.0 | 0.0 | 0.00 | 0.00 | 0.00 | ||
| 20260904003013 | 82 | 103 | 0.0 | 0.0 | 0.00 | 0.00 | 0.00 | ||
| 20260904002514 | 82 | 103 | 0.0 | 0.0 | 0.00 | 0.00 | 0.00 | ||
| 20260904002013 | 83 | 103 | 0.0 | 0.0 | 0.00 | 0.00 | 0.00 | ||
| 20260904001513 | 82 | 103 | 0.0 | 0.0 | 0.00 | 0.00 | 0.00 | ||
| 20260904001011 | 82 | 103 | 0.0 | 0.0 | 0.00 | 0.00 | 0.00 | ||
| 20260904000512 | 83 | 103 | 0.0 | 0.0 | 0.00 | 0.00 | 0.00 | ||
| 20260904000010 | 83 | 103 | 0.0 | 0.0 | 0.00 | 0.00 | 0.00 | ||
| 20260903235007 | 83 | 152 | 0.9 | 1.7 | 0.00 | 0.00 | 0.00 | ||
| 20260903234508 | 83 | 103 | 0.9 | 0.9 | 0.00 | 0.00 | 0.00 | ||
| 20260903234006 | 83 | 146 | 1.7 | 1.7 | 0.00 | 0.00 | 0.00 | ||
| 20260903233507 | 84 | 129 | 1.7 | 1.7 | 0.00 | 0.00 | 0.00 | ||
| 20260903233006 | 83 | 124 | 2.6 | 1.7 | 0.00 | 0.00 | 0.00 | ||
| 20260903232506 | 84 | 159 | 1.7 | 1.7 | 0.00 | 0.00 | 0.00 | ||
| 20260903232004 | 84 | 111 | 1.7 | 0.9 | 0.00 | 0.00 | 0.00 | ||
| 20260903231504 | 85 | 132 | 2.6 | 3.5 | 0.00 | 0.00 | 0.00 | ||
| 20260903230503 | 85 | 138 | 2.6 | 2.6 | 0.00 | 0.00 | 0.00 | ||
| 20260903225502 | 85 | 132 | 5.2 | 6.1 | 0.00 | 0.00 | 0.00 | ||
| 20260903225001 | 85 | 150 | 3.5 | 4.3 | 0.00 | 0.00 | 0.00 | ||
| 20260903224000 | 85 | 38 | 2.6 | 2.6 | 0.00 | 0.00 | 0.00 | ||
| 20260903223501 | 85 | 139 | 0.9 | 3.5 | 0.00 | 0.00 | 0.00 | ||
| 20260903222959 | 85 | 131 | 3.5 | 2.6 | 0.00 | 0.00 | 0.00 | ||
| 20260903222500 | 86 | 122 | 4.3 | 4.3 | 0.00 | 0.00 | 0.00 | ||
| 20260903221958 | 85 | 127 | 5.2 | 4.3 | 0.00 | 0.00 | 0.00 | ||
| 20260903221459 | 85 | 149 | 4.3 | 4.3 | 0.00 | 0.00 | 0.00 | ||
| 20260903220957 | 85 | 150 | 4.3 | 5.2 | 0.00 | 0.00 | 0.00 | ||
| 20260903220458 | 85 | 158 | 4.3 | 7.0 | 0.00 | 0.00 | 0.00 | ||
| 20260903215956 | 85 | 118 | 4.3 | 4.3 | 0.00 | 0.00 | 0.00 | ||
| 20260903215457 | 85 | 98 | 6.1 | 6.1 | 0.00 | 0.00 | 0.00 | ||
| 20260903214456 | 86 | 131 | 5.2 | 4.3 | 0.00 | 0.00 | 0.00 | ||
| 20260903213455 | 86 | 141 | 6.1 | 4.3 | 0.00 | 0.00 | 0.00 | ||
| 20260903212953 | 86 | 146 | 0.9 | 4.3 | 0.00 | 0.00 | 0.00 | ||
| 20260903212454 | 86 | 120 | 6.1 | 6.1 | 0.00 | 0.00 | 0.00 | ||
| 20260903211952 | 87 | 79 | 2.6 | 1.7 | 0.00 | 0.00 | 0.00 | ||
| 20260903211453 | 87 | 158 | 3.5 | 3.5 | 0.00 | 0.00 | 0.00 | ||
| 20260903210949 | 88 | 124 | 4.3 | 6.1 | 0.00 | 0.00 | 0.00 | ||
| 20260903205946 | 87 | 104 | 1.7 | 3.5 | 0.00 | 0.00 | 0.00 | ||
| 20260903204943 | 87 | 125 | 7.8 | 7.8 | 0.00 | 0.00 | 0.00 | ||
| 20260903204444 | 88 | 132 | 3.5 | 6.1 | 0.00 | 0.00 | 0.00 | ||
| 20260903203942 | 87 | 83 | 5.2 | 1.7 | 0.00 | 0.00 | 0.00 | ||
| 20260903203443 | 87 | 118 | 4.3 | 2.6 | 0.00 | 0.00 | 0.00 | ||
| 20260903202941 | 87 | 120 | 5.2 | 6.1 | 0.00 | 0.00 | 0.00 | ||
| 20260903202442 | 87 | 134 | 5.2 | 7.0 | 0.00 | 0.00 | 0.00 | ||
| 20260903201940 | 87 | 114 | 4.3 | 4.3 | 0.00 | 0.00 | 0.00 | ||
| 20260903200937 | 88 | 124 | 5.2 | 7.8 | 0.00 | 0.00 | 0.00 | ||
| 20260903200438 | 88 | 104 | 3.5 | 1.7 | 0.00 | 0.00 | 0.00 | ||
| 20260903195437 | 88 | 121 | 7.0 | 7.8 | 0.00 | 0.00 | 0.00 | ||
| 20260903194935 | 88 | 122 | 7.8 | 5.2 | 0.00 | 0.00 | 0.00 | ||
| 20260903194436 | 89 | 159 | 6.1 | 3.5 | 0.00 | 0.00 | 0.00 | ||
| 20260903193434 | 88 | 39 | 0.9 | 0.0 | 0.00 | 0.00 | 0.00 | ||
| 20260903192932 | 89 | 111 | 5.2 | 3.5 | 0.00 | 0.00 | 0.00 | ||
| 20260903191931 | 89 | 94 | 7.8 | 5.2 | 0.00 | 0.00 | 0.00 | ||
| 20260903191432 | 89 | 128 | 3.5 | 3.5 | 0.00 | 0.00 | 0.00 | ||
| 20260903190930 | 88 | 104 | 6.1 | 1.7 | 0.00 | 0.00 | 0.00 | ||
| 20260903190431 | 89 | 143 | 6.1 | 4.3 | 0.00 | 0.00 | 0.00 | ||
| 20260903185929 | 89 | 93 | 3.5 | 8.7 | 0.00 | 0.00 | 0.00 | ||
| 20260903185430 | 89 | 115 | 3.5 | 4.3 | 0.00 | 0.00 | 0.00 | ||
| 20260903184927 | 89 | 100 | 7.0 | 4.3 | 0.00 | 0.00 | 0.00 | ||
| 20260903183927 | 89 | 143 | 3.5 | 3.5 | 0.00 | 0.00 | 0.00 | ||
| 20260903182926 | 88 | 129 | 6.1 | 7.0 | 0.00 | 0.00 | 0.00 | ||
| 20260903182426 | 89 | 141 | 5.2 | 4.3 | 0.00 | 0.00 | 0.00 | ||
| 20260903181924 | 89 | 138 | 5.2 | 3.5 | 0.00 | 0.00 | 0.00 | ||
| 20260903181424 | 88 | 121 | 6.1 | 7.0 | 0.00 | 0.00 | 0.00 | ||
| 20260903180920 | 88 | 115 | 6.1 | 7.8 | 0.00 | 0.00 | 0.00 | ||
| 20260903180420 | 89 | 143 | 6.1 | 7.8 | 0.00 | 0.00 | 0.00 | ||
| 20260903175920 | 88 | 46 | 0.9 | 0.0 | 0.00 | 0.00 | 0.00 | ||
| 20260903175420 | 88 | 128 | 6.1 | 5.2 | 0.00 | 0.00 | 0.00 | ||
| 20260903174916 | 88 | 139 | 6.1 | 5.2 | 0.00 | 0.00 | 0.00 | ||
| 20260903174417 | 87 | 142 | 4.3 | 4.3 | 0.00 | 0.00 | 0.00 | ||
| 20260903173915 | 88 | 148 | 6.1 | 7.0 | 0.00 | 0.00 | 0.00 | ||
| 20260903173417 | 88 | 146 | 6.1 | 6.1 | 0.00 | 0.00 | 0.00 | ||
| 20260903172914 | 88 | 135 | 6.1 | 6.1 | 0.00 | 0.00 | 0.00 | ||
| 20260903172415 | 88 | 165 | 4.3 | 6.1 | 0.00 | 0.00 | 0.00 |